Tracking 29747 objects as of 10-Oct-2024
HD Live streaming from Space Station
objects crossing your sky now

DELTA 1 DEB

Track DELTA 1 DEB now!
10-day predictions


NORAD ID: 21351
Int'l Code: 1975-052BV
Perigee: 1,099.0 km
Apogee: 1,197.1 km
Inclination: 99.8 °
Period: 108.1 minutes
Semi major axis: 7519 km
RCS: 0.1445 m2 (medium)
Launch date: June 12, 1975
Source: United States (US)
Launch site: AIR FORCE WESTERN TEST RANGE (AFWTR)

Note: This is SATELLITE DEBRIS
Your satellite tracking list
Your tracking list is empty




NASA's NSSDC Master Catalog

Two Line Element Set (TLE):
1 21351U 75052BV  24283.35620046  .00000142  00000-0  37970-3 0  9992
2 21351  99.7630  65.6584 0065249 353.7678  34.8263 13.31553645622245
Source of the keplerian elements: AFSPC